Location: Moscow
(55.7500°N, 37.5830°E)
Time: 07:05:34
(UTC+03:00)

N. Korean satellite - Pass Details

Date: 29 October 2021
Orbit: 446 x 495 km, 97.3° (Epoch: 04 December)

Event Time Altitude Azimuth Distance (km) Brightness Sun altitude
Rises 04:35:47 0° 28° (NNE) 2,597 10.8 -24.8°
Reaches altitude 10° 04:38:55 10° 58° (ENE) 1,701 10.2 -24.3°
Maximum altitude 04:40:39 13° 86° (E) 1,519 10.1 -24.1°
Drops below altitude 10° 04:42:22 10° 115° (ESE) 1,685 10.0 -23.9°
Sets 04:45:25 0° 144° (SE) 2,548 10.6 -23.4°
